GEFSSGP_prec_meanprecacc_222.txt.gz
Total_Precipitation_Accumulation
1.33 1.36 2.00 3.11 3.53 2.88 2.45 1.86 1.15 1.18 1.01 0.68 0.58 0.66 1.05 1.58 1.80 1.99 2.00 1.61 0.98 0.78 0.93 1.52 2.08 1.90 1.81 1.79 1.81 1.86 1.92 1.90 1.71 1.60 1.50 1.38 1.20 1.05 0.99 0.94 0.85 0.81 0.84 0.77 0.75 0.80 0.90 0.95 0.99
1.19 1.89 2.76 3.72 3.26 2.54 2.45 1.82 1.32 1.01 0.67 0.48 0.48 0.54 0.80 0.88 0.82 1.22 2.13 1.91 1.01 0.80 0.87 1.14 1.88 1.95 1.89 1.90 1.86 1.78 1.73 1.69 1.51 1.43 1.36 1.26 1.24 1.14 1.05 0.96 0.90 0.80 0.74 0.73 0.76 0.74 0.80 0.85 0.86
1.52 2.40 3.33 3.41 2.54 2.31 2.34 1.66 1.16 0.64 0.43 0.48 0.54 0.54 0.71 0.93 1.02 1.51 1.97 1.44 0.98 0.86 0.93 1.30 1.97 1.98 1.93 1.89 1.87 1.90 1.72 1.64 1.46 1.28 1.27 1.24 1.24 1.13 1.07 0.98 0.87 0.79 0.77 0.73 0.75 0.78 0.81 0.89 0.87
1.83 2.63 2.91 2.55 2.12 1.69 1.41 1.24 0.85 0.71 0.56 0.36 0.46 0.60 0.56 0.88 1.14 1.38 1.22 0.93 0.90 0.94 1.03 1.36 1.83 1.92 1.90 1.88 1.89 1.81 1.61 1.50 1.39 1.23 1.24 1.27 1.23 1.15 1.07 0.97 0.90 0.82 0.83 0.79 0.77 0.83 0.90 0.95 0.92
2.13 2.63 2.51 2.06 1.94 1.48 1.09 0.91 0.72 0.87 0.79 0.49 0.43 0.63 0.73 1.02 1.15 1.19 1.06 0.91 0.93 1.00 1.02 1.28 1.70 1.77 1.81 1.74 1.60 1.57 1.54 1.40 1.26 1.20 1.17 1.16 1.13 1.08 1.03 1.08 1.03 0.92 0.88 0.83 0.84 0.90 0.92 0.94 0.94
2.30 2.32 2.18 2.01 2.03 1.69 1.39 1.01 0.81 0.90 0.72 0.48 0.47 0.68 0.87 1.15 1.31 1.24 1.09 1.10 1.07 1.06 0.98 1.08 1.45 1.57 1.59 1.56 1.51 1.53 1.49 1.37 1.20 1.12 1.08 1.07 1.07 0.99 0.94 0.96 0.94 0.91 0.90 0.88 0.84 0.87 0.82 0.85 0.95
2.50 2.31 1.95 1.66 1.90 2.16 1.66 1.06 0.96 0.95 0.89 0.66 0.49 0.76 0.95 1.16 1.26 1.07 1.03 1.24 1.39 1.34 1.15 1.05 1.15 1.29 1.40 1.53 1.54 1.61 1.60 1.50 1.32 1.15 1.09 1.06 0.97 0.84 0.78 0.84 0.88 0.89 0.87 0.88 0.89 0.93 0.89 0.90 1.05
2.09 2.14 1.75 1.71 1.97 2.26 1.63 1.07 0.86 0.84 0.87 0.56 0.51 0.83 1.13 1.09 1.14 1.09 1.03 1.19 1.29 1.32 1.28 1.16 1.13 1.18 1.23 1.36 1.57 1.77 1.85 1.89 1.61 1.26 1.16 1.03 0.86 0.78 0.80 0.81 0.88 0.94 0.98 0.99 1.04 1.08 1.03 1.09 1.10
2.01 2.31 2.12 2.20 2.16 1.82 1.23 1.15 0.85 0.65 0.72 0.67 0.55 0.59 0.79 0.75 0.78 0.93 1.00 1.02 0.97 0.95 1.02 1.07 1.07 1.16 1.18 1.20 1.32 1.66 1.85 1.98 1.62 1.17 1.19 1.05 0.79 0.75 0.82 0.87 1.11 1.19 1.20 1.23 1.26 1.26 1.25 1.22 1.14
2.10 2.15 1.92 1.67 1.47 1.32 1.16 1.06 0.84 0.86 1.01 0.92 0.75 0.65 0.68 0.69 0.76 0.84 0.84 0.85 0.78 0.76 0.73 0.74 0.75 0.82 0.95 1.02 1.28 1.60 1.65 1.76 1.41 1.15 1.17 1.09 1.13 1.06 0.84 0.90 1.23 1.36 1.41 1.32 1.29 1.37 1.27 1.07 0.86
1.62 1.69 1.34 1.09 0.86 0.89 0.93 0.85 0.68 0.82 1.06 0.83 0.70 0.69 0.72 0.76 0.74 0.79 0.79 0.69 0.62 0.57 0.56 0.55 0.58 0.60 0.73 0.99 1.26 1.53 1.64 1.70 1.64 1.59 1.40 1.35 1.27 1.07 0.91 0.89 0.96 1.05 1.13 1.07 1.17 1.20 1.03 0.94 0.82
1.48 1.28 1.05 0.99 0.75 0.77 0.76 0.71 0.77 0.71 0.70 0.55 0.49 0.56 0.73 0.82 0.75 0.68 0.71 0.70 0.62 0.59 0.57 0.51 0.44 0.50 0.61 0.78 0.96 1.27 1.45 1.53 1.52 1.48 1.20 1.25 1.25 1.07 1.01 1.12 1.15 1.10 1.09 1.23 1.28 1.27 1.20 1.03 0.84
1.43 1.20 0.92 0.70 0.66 0.64 0.66 0.70 0.72 0.64 0.53 0.48 0.46 0.56 0.74 0.84 0.81 0.69 0.61 0.59 0.60 0.66 0.75 0.71 0.56 0.53 0.60 0.69 0.70 0.84 1.01 1.10 1.35 1.44 1.10 1.03 1.05 1.13 1.15 1.05 1.19 1.25 1.26 1.28 1.29 1.20 1.16 1.17 1.03
1.25 1.01 0.81 0.66 0.64 0.60 0.65 0.66 0.64 0.72 0.56 0.52 0.54 0.64 0.74 0.82 0.82 0.69 0.59 0.51 0.48 0.51 0.62 0.68 0.68 0.70 0.71 0.65 0.59 0.57 0.62 0.74 0.90 0.95 0.85 0.83 0.86 1.00 1.19 1.10 1.08 1.15 1.34 1.42 1.38 1.27 1.33 1.32 1.15
0.85 0.88 0.90 0.76 0.70 0.68 0.74 0.88 0.64 0.60 0.54 0.53 0.56 0.64 0.63 0.64 0.64 0.56 0.50 0.41 0.40 0.42 0.47 0.55 0.61 0.68 0.73 0.78 0.74 0.59 0.59 0.66 0.69 0.71 0.72 0.78 0.78 0.92 1.12 1.06 0.98 0.98 1.15 1.34 1.49 1.53 1.51 1.32 1.23
1.00 0.98 1.23 0.94 0.83 0.73 0.85 0.96 0.57 0.53 0.54 0.52 0.55 0.67 0.63 0.51 0.45 0.42 0.44 0.43 0.39 0.41 0.40 0.47 0.47 0.54 0.64 0.77 0.84 0.79 0.76 0.72 0.67 0.61 0.56 0.59 0.61 0.70 0.91 0.98 0.93 0.92 1.10 1.35 1.57 1.70 1.72 1.55 1.50
1.26 1.17 1.09 0.97 0.81 0.70 0.66 0.67 0.51 0.46 0.46 0.46 0.49 0.59 0.59 0.45 0.39 0.34 0.32 0.35 0.38 0.38 0.39 0.41 0.44 0.46 0.53 0.65 0.73 0.71 0.70 0.67 0.65 0.63 0.53 0.48 0.50 0.60 0.81 1.02 1.08 1.08 1.22 1.35 1.38 1.61 1.71 1.78 1.71
0.99 0.86 0.84 0.76 0.66 0.59 0.53 0.46 0.44 0.39 0.39 0.43 0.46 0.51 0.49 0.36 0.30 0.28 0.28 0.31 0.38 0.38 0.38 0.41 0.42 0.42 0.44 0.48 0.55 0.60 0.57 0.57 0.62 0.60 0.59 0.61 0.68 0.74 0.94 1.19 1.28 1.38 1.43 1.53 1.70 1.97 2.00 1.89 1.90
0.77 0.71 0.68 0.54 0.44 0.46 0.45 0.43 0.44 0.41 0.37 0.39 0.41 0.40 0.44 0.37 0.32 0.24 0.22 0.22 0.29 0.33 0.33 0.36 0.40 0.41 0.39 0.34 0.39 0.44 0.45 0.54 0.62 0.69 0.74 0.80 0.82 0.90 1.12 1.34 1.58 1.72 1.62 1.67 1.89 2.15 2.32 2.15 2.01
0.77 0.77 0.73 0.64 0.47 0.45 0.44 0.45 0.42 0.39 0.36 0.31 0.29 0.28 0.33 0.31 0.29 0.24 0.22 0.19 0.19 0.21 0.25 0.31 0.32 0.32 0.29 0.26 0.31 0.39 0.46 0.53 0.68 0.82 0.93 0.98 0.96 1.01 1.05 1.28 1.48 1.57 1.66 1.72 1.85 2.10 2.44 2.30 2.06
0.69 0.65 0.59 0.66 0.59 0.53 0.57 0.60 0.49 0.43 0.40 0.32 0.25 0.26 0.29 0.28 0.24 0.23 0.22 0.21 0.17 0.19 0.22 0.26 0.28 0.29 0.28 0.33 0.50 0.77 1.01 1.11 1.15 1.16 1.30 1.39 1.34 1.30 1.27 1.32 1.46 1.55 1.69 1.80 1.85 1.89 2.20 2.32 2.19
0.73 0.53 0.45 0.56 0.71 0.67 0.56 0.64 0.44 0.41 0.47 0.37 0.29 0.26 0.28 0.29 0.26 0.22 0.21 0.22 0.16 0.19 0.23 0.25 0.27 0.33 0.35 0.49 0.81 1.19 1.50 1.60 1.60 1.71 1.77 1.83 1.74 1.60 1.59 1.60 1.70 1.66 1.63 1.68 1.70 1.69 1.90 2.27 2.36
0.71 0.58 0.56 0.60 0.64 0.60 0.40 0.43 0.35 0.35 0.46 0.40 0.36 0.34 0.35 0.31 0.28 0.24 0.22 0.22 0.22 0.25 0.30 0.34 0.40 0.54 0.69 0.83 0.99 1.28 1.45 1.54 1.67 1.83 2.01 2.16 2.24 2.16 2.09 2.05 1.92 1.74 1.67 1.71 1.75 1.75 1.83 1.96 2.13
0.52 0.62 0.73 0.72 0.70 0.66 0.33 0.30 0.34 0.34 0.34 0.35 0.36 0.37 0.36 0.32 0.26 0.25 0.28 0.30 0.32 0.40 0.45 0.49 0.60 0.70 0.78 0.89 1.01 1.15 1.21 1.34 1.54 1.69 1.90 2.08 2.17 2.15 2.08 1.95 1.74 1.58 1.52 1.60 1.75 1.79 1.83 1.83 1.92
0.49 0.70 0.99 1.05 0.97 0.68 0.27 0.26 0.32 0.25 0.23 0.26 0.28 0.27 0.28 0.28 0.28 0.28 0.27 0.34 0.40 0.48 0.53 0.61 0.70 0.80 0.85 0.92 1.01 1.07 1.10 1.21 1.36 1.43 1.50 1.53 1.54 1.55 1.55 1.57 1.56 1.47 1.40 1.50 1.73 1.85 1.87 1.84 1.83
0.40 0.50 0.82 0.98 0.78 0.54 0.29 0.37 0.35 0.22 0.18 0.15 0.16 0.20 0.25 0.33 0.35 0.34 0.32 0.41 0.49 0.58 0.70 0.78 0.84 0.87 0.91 0.99 1.06 1.05 1.12 1.23 1.32 1.25 1.21 1.24 1.28 1.34 1.34 1.41 1.45 1.42 1.41 1.45 1.57 1.74 1.85 1.83 1.75
0.38 0.40 0.46 0.57 0.45 0.45 0.35 0.32 0.25 0.15 0.13 0.12 0.17 0.25 0.34 0.44 0.45 0.46 0.46 0.52 0.58 0.68 0.78 0.85 0.93 0.96 1.02 1.04 1.11 1.25 1.27 1.26 1.23 1.11 1.04 1.07 1.03 1.03 1.13 1.24 1.30 1.26 1.27 1.32 1.45 1.62 1.67 1.75 1.80
0.31 0.40 0.49 0.57 0.61 0.58 0.39 0.35 0.30 0.20 0.19 0.22 0.28 0.37 0.49 0.60 0.63 0.63 0.67 0.70 0.73 0.76 0.84 0.90 0.99 1.10 1.08 1.07 1.17 1.36 1.32 1.07 0.89 0.78 0.81 0.84 0.88 0.91 0.97 0.95 0.92 0.90 0.95 0.98 1.09 1.30 1.39 1.45 1.55
0.32 0.31 0.40 0.49 0.49 0.68 0.80 0.78 0.62 0.57 0.46 0.50 0.54 0.62 0.78 0.83 0.84 0.82 0.85 0.88 0.84 0.85 0.91 0.93 0.99 1.15 1.16 1.07 1.15 1.19 1.00 0.75 0.62 0.60 0.57 0.53 0.55 0.60 0.67 0.62 0.60 0.65 0.70 0.67 0.77 0.88 0.98 1.10 1.22
0.25 0.26 0.28 0.48 0.50 0.55 0.87 0.92 0.79 0.80 0.78 0.88 0.97 1.12 1.06 1.01 1.02 0.93 0.87 0.86 0.77 0.75 0.83 0.88 1.00 1.08 1.02 0.98 0.94 0.77 0.61 0.50 0.45 0.40 0.35 0.31 0.30 0.31 0.38 0.39 0.38 0.46 0.59 0.59 0.66 0.71 0.73 0.84 0.96

GEFSSGP_prec_meanprecacc_228.txt.gz
Total_Precipitation_Accumulation
1.33 1.36 2.00 3.12 3.59 2.95 2.49 1.88 1.17 1.19 1.01 0.68 0.58 0.66 1.06 1.60 1.83 2.05 2.07 1.67 1.01 0.80 0.94 1.53 2.10 1.93 1.85 1.84 1.86 1.91 1.97 1.94 1.75 1.65 1.55 1.44 1.27 1.12 1.03 0.99 0.91 0.85 0.88 0.82 0.81 0.85 0.95 1.01 1.06
1.19 1.89 2.76 3.74 3.33 2.61 2.49 1.83 1.33 1.03 0.68 0.48 0.48 0.54 0.81 0.90 0.84 1.26 2.19 1.95 1.04 0.82 0.88 1.15 1.90 1.98 1.96 1.97 1.93 1.83 1.76 1.72 1.54 1.47 1.40 1.31 1.29 1.20 1.09 1.01 0.95 0.85 0.80 0.79 0.81 0.79 0.85 0.91 0.92
1.52 2.40 3.33 3.43 2.57 2.36 2.37 1.67 1.17 0.65 0.43 0.49 0.54 0.54 0.72 0.96 1.04 1.55 2.02 1.47 1.00 0.87 0.94 1.32 1.99 2.01 1.99 1.96 1.93 1.95 1.75 1.66 1.49 1.31 1.31 1.28 1.27 1.17 1.12 1.03 0.93 0.84 0.81 0.77 0.79 0.81 0.86 0.95 0.93
1.83 2.64 2.91 2.56 2.14 1.71 1.42 1.25 0.86 0.71 0.56 0.37 0.46 0.60 0.57 0.89 1.17 1.41 1.25 0.95 0.92 0.96 1.04 1.37 1.86 1.95 1.94 1.93 1.93 1.85 1.65 1.52 1.43 1.27 1.27 1.30 1.26 1.18 1.11 1.01 0.94 0.86 0.86 0.81 0.81 0.88 0.96 1.03 0.99
2.13 2.64 2.52 2.07 1.96 1.49 1.09 0.91 0.72 0.88 0.80 0.50 0.44 0.63 0.74 1.04 1.17 1.21 1.07 0.93 0.95 1.02 1.03 1.29 1.72 1.80 1.85 1.78 1.64 1.61 1.58 1.44 1.29 1.23 1.20 1.19 1.17 1.13 1.07 1.12 1.08 0.95 0.90 0.86 0.87 0.95 0.98 1.02 1.01
2.30 2.33 2.19 2.03 2.05 1.69 1.39 1.01 0.81 0.91 0.74 0.50 0.47 0.69 0.89 1.16 1.32 1.27 1.11 1.11 1.09 1.09 1.00 1.09 1.46 1.60 1.63 1.60 1.55 1.57 1.53 1.40 1.23 1.14 1.12 1.11 1.12 1.02 0.96 1.01 0.99 0.96 0.94 0.91 0.87 0.92 0.87 0.92 1.00
2.52 2.32 1.95 1.67 1.91 2.17 1.66 1.06 0.97 0.96 0.89 0.66 0.49 0.76 0.96 1.18 1.27 1.08 1.04 1.26 1.42 1.36 1.17 1.06 1.16 1.32 1.42 1.56 1.59 1.67 1.64 1.54 1.36 1.18 1.12 1.09 1.00 0.87 0.80 0.89 0.94 0.95 0.92 0.92 0.93 0.98 0.93 0.95 1.09
2.10 2.14 1.76 1.71 1.99 2.27 1.63 1.07 0.86 0.84 0.87 0.56 0.51 0.84 1.14 1.10 1.15 1.10 1.04 1.20 1.31 1.34 1.29 1.18 1.17 1.21 1.26 1.39 1.60 1.80 1.88 1.93 1.65 1.29 1.19 1.06 0.90 0.82 0.83 0.84 0.93 1.00 1.03 1.04 1.09 1.13 1.07 1.13 1.13
2.01 2.32 2.13 2.22 2.18 1.82 1.23 1.15 0.85 0.65 0.72 0.67 0.55 0.59 0.79 0.75 0.78 0.93 1.01 1.03 0.98 0.96 1.04 1.09 1.11 1.19 1.21 1.23 1.34 1.69 1.87 2.01 1.66 1.20 1.21 1.09 0.87 0.82 0.89 0.90 1.17 1.24 1.24 1.28 1.31 1.31 1.30 1.26 1.17
2.10 2.16 1.93 1.68 1.47 1.32 1.16 1.06 0.84 0.86 1.01 0.92 0.76 0.66 0.68 0.69 0.76 0.84 0.85 0.86 0.79 0.77 0.73 0.75 0.76 0.83 0.97 1.04 1.32 1.64 1.69 1.80 1.46 1.20 1.21 1.14 1.20 1.11 0.89 0.94 1.28 1.42 1.46 1.37 1.34 1.41 1.33 1.14 0.93
1.62 1.70 1.34 1.09 0.86 0.89 0.93 0.85 0.68 0.83 1.07 0.83 0.71 0.69 0.72 0.76 0.74 0.79 0.80 0.69 0.62 0.57 0.56 0.55 0.59 0.61 0.75 1.02 1.31 1.58 1.70 1.77 1.70 1.64 1.43 1.38 1.31 1.10 0.94 0.92 1.00 1.09 1.17 1.10 1.20 1.24 1.07 0.99 0.88
1.48 1.28 1.05 0.99 0.75 0.77 0.76 0.71 0.77 0.71 0.70 0.55 0.49 0.56 0.74 0.82 0.75 0.69 0.72 0.70 0.62 0.59 0.57 0.51 0.45 0.51 0.64 0.80 1.00 1.32 1.52 1.59 1.56 1.51 1.22 1.27 1.29 1.12 1.06 1.15 1.19 1.14 1.14 1.29 1.33 1.31 1.22 1.06 0.88
1.43 1.20 0.92 0.70 0.66 0.64 0.66 0.70 0.72 0.65 0.53 0.48 0.46 0.56 0.74 0.85 0.82 0.69 0.62 0.59 0.60 0.66 0.75 0.71 0.56 0.54 0.62 0.72 0.73 0.89 1.06 1.16 1.39 1.46 1.11 1.05 1.08 1.17 1.18 1.08 1.23 1.29 1.30 1.32 1.34 1.24 1.18 1.20 1.06
1.25 1.01 0.81 0.66 0.64 0.60 0.65 0.66 0.64 0.72 0.56 0.52 0.54 0.64 0.74 0.83 0.83 0.69 0.59 0.52 0.49 0.51 0.63 0.68 0.68 0.71 0.72 0.68 0.62 0.60 0.65 0.79 0.95 0.98 0.86 0.84 0.87 1.03 1.21 1.11 1.10 1.19 1.37 1.45 1.41 1.29 1.34 1.34 1.18
0.85 0.88 0.90 0.77 0.71 0.68 0.74 0.89 0.65 0.60 0.54 0.53 0.56 0.64 0.63 0.64 0.65 0.56 0.50 0.41 0.40 0.42 0.47 0.55 0.61 0.68 0.74 0.81 0.78 0.63 0.63 0.70 0.72 0.72 0.73 0.78 0.79 0.94 1.13 1.08 1.00 1.00 1.17 1.36 1.51 1.54 1.53 1.34 1.26
1.00 0.98 1.23 0.95 0.85 0.74 0.86 0.97 0.58 0.54 0.54 0.52 0.55 0.67 0.63 0.51 0.45 0.42 0.44 0.43 0.39 0.41 0.41 0.47 0.48 0.54 0.65 0.79 0.87 0.83 0.80 0.78 0.70 0.63 0.57 0.59 0.62 0.71 0.92 1.00 0.95 0.95 1.12 1.37 1.59 1.72 1.76 1.59 1.53
1.27 1.18 1.10 0.97 0.83 0.70 0.67 0.68 0.52 0.46 0.46 0.46 0.49 0.59 0.59 0.46 0.40 0.35 0.33 0.35 0.39 0.39 0.39 0.41 0.44 0.47 0.53 0.66 0.75 0.75 0.74 0.73 0.70 0.65 0.55 0.49 0.51 0.61 0.83 1.04 1.10 1.11 1.25 1.38 1.40 1.64 1.75 1.81 1.74
1.00 0.87 0.85 0.77 0.66 0.59 0.53 0.48 0.45 0.39 0.39 0.43 0.46 0.52 0.49 0.37 0.31 0.28 0.28 0.32 0.39 0.39 0.39 0.42 0.43 0.43 0.45 0.49 0.57 0.65 0.62 0.62 0.66 0.62 0.60 0.63 0.70 0.76 0.97 1.22 1.30 1.40 1.46 1.56 1.74 2.01 2.03 1.92 1.93
0.77 0.72 0.69 0.56 0.44 0.46 0.45 0.44 0.45 0.41 0.37 0.39 0.41 0.40 0.44 0.37 0.32 0.25 0.22 0.22 0.30 0.34 0.36 0.39 0.42 0.42 0.40 0.36 0.41 0.47 0.49 0.58 0.66 0.73 0.78 0.82 0.84 0.92 1.14 1.36 1.61 1.76 1.65 1.69 1.92 2.20 2.35 2.18 2.02
0.77 0.78 0.74 0.66 0.48 0.45 0.45 0.47 0.43 0.40 0.37 0.31 0.29 0.28 0.33 0.32 0.29 0.24 0.22 0.19 0.19 0.22 0.27 0.34 0.35 0.32 0.29 0.26 0.31 0.40 0.47 0.55 0.71 0.87 1.05 1.03 0.98 1.02 1.06 1.30 1.51 1.60 1.69 1.75 1.88 2.15 2.48 2.32 2.06
0.70 0.66 0.60 0.67 0.59 0.54 0.58 0.62 0.51 0.44 0.41 0.33 0.25 0.26 0.30 0.28 0.25 0.24 0.23 0.22 0.18 0.19 0.23 0.27 0.30 0.30 0.28 0.33 0.52 0.79 1.04 1.14 1.19 1.22 1.42 1.45 1.37 1.32 1.29 1.33 1.47 1.57 1.70 1.82 1.88 1.93 2.24 2.35 2.20
0.74 0.54 0.47 0.58 0.72 0.69 0.58 0.66 0.46 0.42 0.48 0.38 0.30 0.26 0.28 0.29 0.26 0.23 0.21 0.22 0.16 0.19 0.23 0.26 0.29 0.36 0.37 0.51 0.82 1.21 1.54 1.64 1.64 1.75 1.80 1.87 1.78 1.62 1.61 1.63 1.72 1.67 1.64 1.70 1.72 1.73 1.94 2.30 2.39
0.72 0.58 0.58 0.62 0.66 0.61 0.41 0.44 0.37 0.35 0.47 0.40 0.37 0.34 0.35 0.32 0.28 0.24 0.23 0.22 0.22 0.25 0.30 0.34 0.41 0.55 0.71 0.85 1.01 1.31 1.48 1.57 1.71 1.86 2.07 2.22 2.28 2.19 2.12 2.08 1.95 1.76 1.70 1.74 1.77 1.78 1.86 1.99 2.17
0.53 0.64 0.75 0.75 0.72 0.68 0.34 0.31 0.35 0.34 0.34 0.35 0.36 0.38 0.37 0.32 0.26 0.26 0.28 0.30 0.33 0.40 0.45 0.49 0.61 0.72 0.80 0.90 1.03 1.18 1.24 1.38 1.59 1.76 1.98 2.13 2.21 2.18 2.11 1.98 1.76 1.59 1.54 1.62 1.76 1.80 1.86 1.86 1.95
0.50 0.72 1.02 1.10 1.01 0.70 0.28 0.27 0.33 0.26 0.23 0.26 0.28 0.27 0.28 0.28 0.28 0.28 0.28 0.35 0.40 0.48 0.54 0.62 0.70 0.81 0.87 0.93 1.03 1.09 1.13 1.25 1.41 1.48 1.55 1.58 1.57 1.58 1.59 1.60 1.58 1.49 1.41 1.51 1.74 1.86 1.90 1.87 1.86
0.43 0.52 0.85 1.03 0.82 0.56 0.30 0.38 0.36 0.22 0.18 0.15 0.16 0.20 0.26 0.33 0.35 0.34 0.32 0.41 0.49 0.58 0.70 0.78 0.85 0.88 0.92 1.01 1.08 1.07 1.15 1.26 1.35 1.29 1.24 1.28 1.31 1.36 1.37 1.44 1.47 1.44 1.43 1.46 1.58 1.75 1.86 1.85 1.77
0.40 0.42 0.47 0.59 0.47 0.47 0.36 0.33 0.26 0.15 0.14 0.13 0.17 0.25 0.34 0.44 0.45 0.46 0.46 0.52 0.58 0.68 0.78 0.85 0.93 0.97 1.03 1.06 1.13 1.27 1.30 1.29 1.26 1.14 1.07 1.10 1.05 1.04 1.15 1.27 1.34 1.29 1.30 1.34 1.46 1.64 1.68 1.76 1.81
0.32 0.41 0.50 0.58 0.64 0.60 0.40 0.35 0.30 0.20 0.20 0.22 0.28 0.37 0.49 0.60 0.63 0.64 0.68 0.71 0.74 0.77 0.84 0.90 0.99 1.10 1.09 1.08 1.19 1.37 1.34 1.09 0.91 0.81 0.84 0.88 0.91 0.93 0.99 0.96 0.95 0.93 0.99 1.00 1.11 1.31 1.41 1.46 1.56
0.32 0.32 0.40 0.50 0.50 0.69 0.81 0.78 0.63 0.57 0.46 0.51 0.54 0.62 0.79 0.83 0.84 0.82 0.85 0.88 0.85 0.85 0.91 0.93 0.99 1.15 1.17 1.07 1.16 1.20 1.02 0.77 0.65 0.62 0.59 0.57 0.58 0.63 0.70 0.64 0.62 0.67 0.73 0.70 0.79 0.89 1.00 1.12 1.23
0.25 0.26 0.28 0.48 0.51 0.55 0.88 0.93 0.79 0.81 0.78 0.88 0.97 1.12 1.06 1.02 1.02 0.93 0.87 0.86 0.77 0.75 0.83 0.89 1.00 1.09 1.03 0.98 0.94 0.78 0.62 0.52 0.47 0.42 0.37 0.34 0.34 0.35 0.40 0.41 0.41 0.49 0.61 0.62 0.68 0.73 0.75 0.86 0.97

GEFSSGP_prec_meanprecacc_234.txt.gz
Total_Precipitation_Accumulation
1.33 1.37 2.02 3.17 3.64 2.98 2.51 1.89 1.19 1.21 1.02 0.69 0.58 0.67 1.06 1.61 1.86 2.10 2.11 1.71 1.04 0.82 0.95 1.54 2.12 1.94 1.86 1.87 1.88 1.93 1.99 1.96 1.78 1.67 1.57 1.46 1.28 1.14 1.05 1.01 0.93 0.87 0.90 0.84 0.84 0.87 0.97 1.03 1.08
1.19 1.90 2.79 3.79 3.37 2.63 2.51 1.85 1.35 1.04 0.68 0.48 0.48 0.55 0.81 0.91 0.85 1.28 2.22 1.98 1.07 0.85 0.89 1.16 1.92 2.00 1.97 2.00 1.97 1.85 1.78 1.74 1.55 1.49 1.43 1.32 1.30 1.21 1.10 1.03 0.97 0.86 0.82 0.82 0.84 0.81 0.86 0.92 0.95
1.53 2.42 3.36 3.47 2.60 2.38 2.39 1.69 1.19 0.66 0.44 0.49 0.54 0.54 0.72 0.97 1.06 1.58 2.06 1.50 1.03 0.89 0.95 1.33 2.00 2.03 2.01 1.97 1.95 1.97 1.77 1.69 1.51 1.32 1.33 1.30 1.28 1.19 1.13 1.05 0.95 0.86 0.84 0.79 0.81 0.84 0.88 0.97 0.96
1.84 2.65 2.94 2.59 2.16 1.73 1.44 1.27 0.87 0.72 0.57 0.38 0.46 0.60 0.57 0.91 1.18 1.43 1.28 0.96 0.93 0.97 1.05 1.39 1.87 1.97 1.97 1.94 1.94 1.87 1.67 1.54 1.44 1.28 1.29 1.33 1.29 1.20 1.13 1.03 0.97 0.89 0.89 0.84 0.83 0.90 0.98 1.06 1.02
2.14 2.66 2.56 2.08 1.98 1.51 1.12 0.94 0.73 0.88 0.80 0.50 0.44 0.63 0.75 1.06 1.18 1.22 1.09 0.93 0.96 1.03 1.05 1.31 1.75 1.83 1.88 1.81 1.65 1.62 1.59 1.45 1.31 1.24 1.22 1.21 1.19 1.15 1.09 1.14 1.11 0.99 0.94 0.89 0.90 0.97 1.01 1.06 1.04
2.32 2.36 2.23 2.04 2.08 1.72 1.41 1.03 0.82 0.92 0.74 0.50 0.47 0.69 0.90 1.18 1.33 1.27 1.12 1.13 1.11 1.10 1.02 1.12 1.50 1.64 1.67 1.63 1.58 1.59 1.54 1.42 1.24 1.15 1.13 1.12 1.13 1.03 0.98 1.04 1.03 1.00 0.97 0.93 0.90 0.94 0.90 0.95 1.04
2.53 2.35 1.99 1.68 1.92 2.19 1.67 1.06 0.98 0.99 0.90 0.67 0.49 0.77 0.97 1.19 1.28 1.09 1.04 1.27 1.43 1.37 1.19 1.09 1.20 1.35 1.46 1.60 1.63 1.70 1.66 1.56 1.38 1.19 1.13 1.11 1.02 0.89 0.82 0.92 0.98 0.99 0.95 0.94 0.96 1.01 0.97 0.98 1.12
2.10 2.15 1.76 1.72 2.00 2.28 1.64 1.07 0.87 0.85 0.88 0.56 0.51 0.85 1.16 1.12 1.16 1.11 1.04 1.20 1.32 1.35 1.30 1.20 1.21 1.25 1.29 1.42 1.64 1.84 1.92 1.96 1.68 1.33 1.22 1.09 0.93 0.85 0.87 0.87 0.96 1.04 1.07 1.07 1.12 1.17 1.11 1.16 1.16
2.02 2.33 2.14 2.23 2.19 1.84 1.24 1.16 0.87 0.67 0.73 0.68 0.55 0.60 0.80 0.75 0.79 0.93 1.01 1.03 1.00 0.97 1.04 1.10 1.14 1.24 1.24 1.29 1.40 1.72 1.91 2.04 1.69 1.23 1.25 1.12 0.88 0.83 0.91 0.94 1.21 1.29 1.29 1.33 1.36 1.36 1.35 1.30 1.20
2.12 2.17 1.94 1.69 1.48 1.32 1.17 1.07 0.85 0.87 1.02 0.93 0.76 0.66 0.68 0.69 0.76 0.84 0.85 0.87 0.80 0.78 0.74 0.76 0.77 0.85 0.99 1.06 1.35 1.66 1.71 1.81 1.47 1.23 1.23 1.16 1.21 1.12 0.91 0.99 1.33 1.47 1.51 1.42 1.39 1.46 1.38 1.17 0.96
1.63 1.71 1.35 1.10 0.86 0.89 0.93 0.86 0.69 0.83 1.07 0.84 0.71 0.70 0.73 0.76 0.75 0.80 0.80 0.69 0.62 0.57 0.56 0.56 0.60 0.63 0.77 1.04 1.33 1.61 1.73 1.79 1.73 1.67 1.46 1.41 1.33 1.11 0.96 0.94 1.03 1.12 1.19 1.12 1.22 1.26 1.09 1.01 0.91
1.48 1.28 1.06 0.99 0.75 0.77 0.76 0.71 0.77 0.72 0.71 0.56 0.50 0.56 0.74 0.83 0.77 0.70 0.72 0.70 0.63 0.59 0.58 0.51 0.46 0.53 0.66 0.81 1.01 1.35 1.55 1.61 1.58 1.53 1.23 1.29 1.31 1.13 1.07 1.17 1.21 1.17 1.16 1.31 1.35 1.33 1.24 1.08 0.90
1.43 1.20 0.92 0.71 0.66 0.64 0.66 0.70 0.72 0.65 0.53 0.49 0.47 0.56 0.75 0.86 0.83 0.70 0.62 0.59 0.61 0.67 0.76 0.71 0.57 0.55 0.64 0.73 0.74 0.89 1.07 1.17 1.42 1.49 1.13 1.06 1.10 1.19 1.20 1.10 1.26 1.32 1.33 1.35 1.37 1.28 1.21 1.22 1.08
1.25 1.01 0.81 0.67 0.65 0.60 0.65 0.66 0.64 0.73 0.56 0.52 0.54 0.64 0.75 0.83 0.84 0.70 0.60 0.52 0.50 0.53 0.64 0.69 0.69 0.72 0.74 0.71 0.64 0.62 0.67 0.81 0.98 1.01 0.88 0.86 0.89 1.06 1.25 1.16 1.14 1.22 1.40 1.48 1.44 1.33 1.36 1.35 1.20
0.85 0.88 0.91 0.78 0.72 0.69 0.74 0.90 0.66 0.61 0.54 0.53 0.56 0.64 0.63 0.64 0.66 0.57 0.50 0.42 0.41 0.45 0.50 0.57 0.63 0.70 0.76 0.83 0.80 0.66 0.65 0.73 0.75 0.75 0.77 0.80 0.81 0.97 1.17 1.12 1.04 1.04 1.20 1.38 1.54 1.56 1.55 1.36 1.28
1.00 0.99 1.24 0.96 0.86 0.76 0.87 0.98 0.59 0.54 0.54 0.52 0.55 0.67 0.64 0.52 0.46 0.43 0.45 0.44 0.41 0.44 0.44 0.50 0.49 0.56 0.66 0.81 0.89 0.85 0.83 0.83 0.74 0.67 0.61 0.63 0.65 0.74 0.96 1.03 0.99 0.99 1.16 1.39 1.62 1.74 1.77 1.60 1.54
1.27 1.18 1.10 0.98 0.84 0.72 0.68 0.69 0.53 0.47 0.47 0.47 0.49 0.59 0.59 0.46 0.40 0.35 0.33 0.36 0.40 0.41 0.43 0.45 0.47 0.49 0.55 0.67 0.76 0.78 0.80 0.82 0.78 0.71 0.60 0.53 0.55 0.64 0.86 1.06 1.13 1.14 1.28 1.39 1.42 1.65 1.76 1.83 1.74
1.00 0.87 0.86 0.78 0.68 0.62 0.55 0.49 0.45 0.40 0.39 0.44 0.46 0.52 0.49 0.37 0.32 0.29 0.29 0.33 0.39 0.40 0.42 0.47 0.47 0.46 0.47 0.50 0.59 0.68 0.68 0.70 0.74 0.68 0.64 0.65 0.72 0.79 0.99 1.24 1.32 1.43 1.49 1.57 1.75 2.02 2.05 1.94 1.93
0.77 0.72 0.70 0.56 0.45 0.49 0.48 0.46 0.46 0.42 0.38 0.39 0.42 0.40 0.44 0.38 0.33 0.25 0.23 0.23 0.30 0.35 0.37 0.42 0.46 0.45 0.42 0.37 0.43 0.50 0.53 0.65 0.73 0.80 0.87 0.87 0.87 0.94 1.16 1.38 1.64 1.78 1.66 1.71 1.93 2.22 2.38 2.19 2.03
0.77 0.78 0.75 0.66 0.49 0.47 0.49 0.50 0.45 0.41 0.37 0.32 0.29 0.28 0.33 0.32 0.30 0.25 0.23 0.20 0.20 0.23 0.28 0.35 0.37 0.35 0.31 0.29 0.34 0.43 0.50 0.60 0.77 0.93 1.14 1.09 1.01 1.05 1.08 1.32 1.53 1.63 1.71 1.77 1.89 2.16 2.51 2.34 2.07
0.70 0.66 0.60 0.68 0.60 0.56 0.61 0.65 0.53 0.47 0.41 0.33 0.25 0.27 0.30 0.28 0.25 0.24 0.24 0.22 0.18 0.20 0.23 0.27 0.31 0.32 0.30 0.37 0.56 0.82 1.07 1.17 1.24 1.28 1.49 1.53 1.41 1.36 1.32 1.37 1.49 1.58 1.72 1.84 1.89 1.95 2.26 2.36 2.21
0.75 0.54 0.47 0.58 0.74 0.71 0.60 0.69 0.49 0.44 0.49 0.39 0.31 0.27 0.28 0.29 0.26 0.23 0.22 0.23 0.17 0.19 0.24 0.27 0.29 0.36 0.38 0.53 0.85 1.25 1.57 1.67 1.67 1.78 1.85 1.92 1.82 1.66 1.65 1.67 1.75 1.70 1.66 1.72 1.74 1.74 1.94 2.30 2.40
0.72 0.58 0.58 0.63 0.67 0.63 0.44 0.47 0.38 0.37 0.47 0.41 0.37 0.35 0.35 0.32 0.29 0.25 0.23 0.23 0.23 0.25 0.31 0.35 0.41 0.56 0.72 0.87 1.03 1.33 1.52 1.61 1.74 1.90 2.11 2.26 2.32 2.24 2.17 2.13 1.99 1.79 1.72 1.76 1.79 1.79 1.87 2.01 2.19
0.54 0.65 0.76 0.77 0.74 0.70 0.36 0.32 0.36 0.35 0.35 0.36 0.36 0.39 0.38 0.32 0.27 0.26 0.29 0.31 0.33 0.40 0.46 0.50 0.62 0.73 0.81 0.91 1.05 1.20 1.27 1.40 1.62 1.80 2.02 2.17 2.26 2.24 2.17 2.03 1.80 1.61 1.56 1.64 1.79 1.82 1.88 1.88 1.96
0.51 0.74 1.04 1.12 1.02 0.71 0.29 0.28 0.34 0.26 0.23 0.26 0.28 0.27 0.28 0.29 0.28 0.29 0.28 0.35 0.40 0.48 0.54 0.62 0.71 0.83 0.87 0.94 1.04 1.11 1.15 1.28 1.43 1.51 1.58 1.61 1.62 1.63 1.65 1.65 1.62 1.52 1.43 1.54 1.78 1.89 1.92 1.88 1.86
0.43 0.53 0.87 1.04 0.84 0.58 0.31 0.38 0.37 0.23 0.18 0.15 0.17 0.21 0.26 0.33 0.35 0.34 0.32 0.41 0.49 0.59 0.70 0.78 0.85 0.89 0.93 1.02 1.09 1.09 1.18 1.30 1.37 1.32 1.27 1.31 1.34 1.40 1.43 1.49 1.52 1.48 1.46 1.49 1.62 1.77 1.87 1.87 1.79
0.41 0.42 0.48 0.61 0.49 0.49 0.37 0.34 0.26 0.15 0.14 0.13 0.18 0.26 0.35 0.44 0.46 0.46 0.47 0.52 0.59 0.69 0.79 0.86 0.94 0.98 1.03 1.06 1.14 1.28 1.32 1.31 1.29 1.18 1.11 1.14 1.09 1.08 1.20 1.32 1.39 1.34 1.34 1.37 1.50 1.66 1.69 1.78 1.83
0.32 0.41 0.50 0.59 0.65 0.61 0.41 0.36 0.31 0.20 0.20 0.23 0.29 0.38 0.50 0.60 0.63 0.64 0.68 0.71 0.74 0.77 0.85 0.92 1.01 1.12 1.10 1.09 1.20 1.39 1.35 1.11 0.94 0.86 0.90 0.94 0.96 0.97 1.04 1.02 1.01 0.99 1.03 1.04 1.15 1.34 1.43 1.49 1.59
0.33 0.32 0.41 0.50 0.50 0.70 0.82 0.80 0.63 0.58 0.47 0.51 0.54 0.63 0.80 0.84 0.85 0.82 0.86 0.89 0.85 0.86 0.92 0.95 1.01 1.17 1.18 1.07 1.17 1.20 1.03 0.79 0.68 0.66 0.64 0.62 0.64 0.68 0.74 0.69 0.66 0.72 0.78 0.74 0.83 0.93 1.03 1.15 1.26
0.26 0.26 0.29 0.49 0.51 0.56 0.89 0.94 0.80 0.82 0.79 0.88 0.97 1.13 1.07 1.02 1.03 0.93 0.87 0.87 0.77 0.75 0.84 0.90 1.02 1.11 1.05 0.99 0.95 0.79 0.63 0.53 0.49 0.44 0.39 0.37 0.39 0.40 0.46 0.46 0.45 0.53 0.65 0.67 0.72 0.76 0.77 0.88 1.00

GEFSSGP_prec_meanprecacc_240.txt.gz
Total_Precipitation_Accumulation
1.34 1.38 2.05 3.19 3.64 2.98 2.51 1.89 1.19 1.21 1.02 0.69 0.58 0.67 1.07 1.61 1.86 2.11 2.13 1.74 1.07 0.85 0.99 1.59 2.17 1.98 1.89 1.89 1.90 1.97 2.04 2.02 1.87 1.72 1.60 1.49 1.31 1.16 1.08 1.07 1.00 0.94 0.95 0.88 0.88 0.91 0.99 1.05 1.11
1.20 1.92 2.82 3.80 3.37 2.63 2.51 1.85 1.35 1.04 0.68 0.48 0.48 0.55 0.81 0.91 0.86 1.29 2.24 2.02 1.11 0.88 0.93 1.19 1.96 2.04 2.01 2.05 2.01 1.88 1.81 1.78 1.62 1.56 1.49 1.36 1.33 1.24 1.14 1.09 1.03 0.91 0.87 0.87 0.88 0.84 0.88 0.95 0.99
1.54 2.43 3.37 3.47 2.60 2.38 2.39 1.70 1.20 0.66 0.44 0.49 0.54 0.54 0.72 0.97 1.07 1.59 2.08 1.54 1.06 0.92 0.98 1.35 2.03 2.07 2.04 2.00 1.98 1.99 1.79 1.72 1.54 1.37 1.38 1.35 1.32 1.22 1.17 1.10 1.00 0.90 0.87 0.82 0.84 0.87 0.91 1.01 1.02
1.85 2.66 2.95 2.59 2.16 1.73 1.44 1.28 0.88 0.72 0.57 0.38 0.46 0.60 0.57 0.91 1.19 1.45 1.31 1.01 0.97 0.99 1.07 1.41 1.91 2.01 2.00 1.97 1.96 1.88 1.69 1.57 1.47 1.32 1.34 1.39 1.36 1.25 1.16 1.06 1.00 0.92 0.91 0.86 0.86 0.93 1.02 1.11 1.08
2.15 2.66 2.56 2.08 1.98 1.51 1.12 0.95 0.74 0.89 0.81 0.50 0.44 0.63 0.75 1.06 1.19 1.24 1.12 0.96 0.98 1.05 1.06 1.33 1.79 1.87 1.93 1.84 1.67 1.64 1.62 1.47 1.33 1.27 1.26 1.25 1.25 1.20 1.12 1.17 1.15 1.02 0.96 0.92 0.93 1.03 1.05 1.10 1.10
2.32 2.37 2.23 2.05 2.08 1.73 1.41 1.04 0.83 0.92 0.74 0.50 0.47 0.69 0.90 1.19 1.34 1.28 1.12 1.14 1.12 1.11 1.03 1.14 1.55 1.70 1.73 1.68 1.60 1.61 1.56 1.44 1.26 1.18 1.16 1.15 1.16 1.06 1.01 1.09 1.09 1.03 1.00 0.96 0.93 1.00 0.95 1.00 1.09
2.53 2.35 1.99 1.68 1.93 2.20 1.67 1.07 0.99 1.00 0.90 0.67 0.49 0.77 0.98 1.20 1.30 1.10 1.05 1.27 1.44 1.39 1.20 1.11 1.24 1.41 1.53 1.66 1.67 1.73 1.70 1.60 1.41 1.23 1.17 1.15 1.07 0.92 0.87 0.99 1.04 1.05 0.98 0.97 1.00 1.07 1.02 1.03 1.15
2.11 2.15 1.77 1.73 2.00 2.29 1.64 1.08 0.88 0.86 0.88 0.56 0.51 0.85 1.16 1.12 1.17 1.12 1.05 1.21 1.33 1.37 1.31 1.20 1.23 1.30 1.34 1.47 1.70 1.89 1.96 2.00 1.72 1.37 1.27 1.14 0.97 0.89 0.92 0.93 1.04 1.12 1.13 1.13 1.17 1.22 1.17 1.21 1.21
2.02 2.33 2.15 2.23 2.19 1.84 1.24 1.16 0.87 0.67 0.74 0.68 0.55 0.60 0.80 0.75 0.79 0.94 1.02 1.04 1.00 0.98 1.05 1.10 1.15 1.27 1.28 1.32 1.43 1.76 1.95 2.08 1.73 1.27 1.29 1.15 0.90 0.85 0.93 0.97 1.27 1.37 1.37 1.40 1.43 1.41 1.41 1.35 1.25
2.12 2.18 1.94 1.69 1.48 1.32 1.17 1.07 0.85 0.88 1.03 0.94 0.77 0.66 0.68 0.69 0.77 0.85 0.86 0.87 0.81 0.79 0.76 0.78 0.78 0.87 1.04 1.11 1.37 1.68 1.73 1.83 1.49 1.24 1.25 1.18 1.22 1.13 0.92 1.02 1.38 1.55 1.59 1.49 1.45 1.50 1.41 1.19 0.97
1.63 1.71 1.35 1.10 0.86 0.89 0.93 0.86 0.69 0.83 1.07 0.84 0.72 0.70 0.73 0.77 0.76 0.81 0.80 0.70 0.63 0.59 0.59 0.59 0.62 0.64 0.80 1.10 1.38 1.63 1.75 1.81 1.75 1.69 1.49 1.43 1.34 1.13 0.98 0.95 1.04 1.14 1.22 1.14 1.24 1.27 1.10 1.01 0.91
1.48 1.28 1.06 0.99 0.75 0.77 0.76 0.71 0.77 0.72 0.71 0.56 0.50 0.56 0.75 0.84 0.78 0.71 0.73 0.71 0.64 0.61 0.61 0.55 0.49 0.54 0.67 0.85 1.06 1.37 1.57 1.64 1.61 1.55 1.26 1.30 1.32 1.14 1.08 1.18 1.22 1.18 1.17 1.31 1.36 1.34 1.24 1.08 0.91
1.43 1.21 0.92 0.71 0.66 0.64 0.66 0.70 0.72 0.65 0.53 0.49 0.47 0.56 0.75 0.86 0.83 0.71 0.64 0.61 0.63 0.70 0.79 0.74 0.60 0.57 0.66 0.75 0.76 0.92 1.09 1.19 1.45 1.52 1.16 1.07 1.11 1.21 1.22 1.12 1.27 1.34 1.35 1.36 1.39 1.30 1.22 1.22 1.09
1.25 1.02 0.81 0.67 0.65 0.60 0.65 0.66 0.65 0.73 0.56 0.53 0.55 0.64 0.75 0.83 0.84 0.70 0.60 0.53 0.52 0.56 0.67 0.72 0.72 0.74 0.75 0.72 0.66 0.65 0.70 0.83 0.99 1.04 0.91 0.88 0.91 1.08 1.28 1.19 1.16 1.24 1.43 1.51 1.48 1.38 1.39 1.38 1.22
0.85 0.88 0.91 0.78 0.73 0.69 0.74 0.90 0.67 0.61 0.54 0.53 0.56 0.65 0.63 0.65 0.66 0.57 0.50 0.43 0.42 0.46 0.52 0.60 0.66 0.71 0.76 0.83 0.82 0.68 0.68 0.76 0.78 0.78 0.80 0.84 0.84 1.00 1.21 1.16 1.07 1.07 1.22 1.41 1.58 1.62 1.59 1.39 1.30
1.00 0.99 1.24 0.96 0.87 0.77 0.87 0.99 0.59 0.54 0.54 0.53 0.55 0.67 0.64 0.52 0.47 0.43 0.45 0.45 0.41 0.44 0.45 0.52 0.51 0.58 0.68 0.82 0.90 0.87 0.86 0.85 0.78 0.70 0.64 0.66 0.68 0.77 1.00 1.11 1.04 1.03 1.19 1.42 1.65 1.80 1.83 1.64 1.57
1.27 1.18 1.10 0.98 0.85 0.75 0.70 0.70 0.53 0.47 0.47 0.47 0.49 0.59 0.59 0.46 0.41 0.36 0.34 0.37 0.41 0.42 0.43 0.46 0.48 0.51 0.56 0.69 0.77 0.79 0.82 0.84 0.80 0.74 0.64 0.57 0.58 0.67 0.90 1.14 1.19 1.20 1.33 1.43 1.45 1.68 1.79 1.85 1.76
1.00 0.87 0.86 0.78 0.68 0.64 0.58 0.50 0.46 0.40 0.40 0.44 0.47 0.52 0.49 0.37 0.32 0.29 0.29 0.34 0.40 0.41 0.42 0.47 0.48 0.48 0.49 0.52 0.61 0.70 0.70 0.72 0.77 0.70 0.66 0.69 0.76 0.83 1.04 1.28 1.36 1.46 1.51 1.60 1.78 2.05 2.07 1.95 1.94
0.77 0.72 0.70 0.56 0.46 0.50 0.51 0.49 0.46 0.42 0.38 0.40 0.42 0.40 0.44 0.38 0.33 0.26 0.24 0.24 0.31 0.35 0.38 0.43 0.47 0.47 0.44 0.40 0.45 0.52 0.55 0.67 0.77 0.83 0.89 0.89 0.90 0.99 1.19 1.41 1.67 1.80 1.68 1.73 1.96 2.24 2.39 2.20 2.03
0.77 0.78 0.75 0.67 0.49 0.49 0.51 0.53 0.47 0.41 0.38 0.32 0.29 0.28 0.33 0.32 0.30 0.25 0.24 0.22 0.21 0.24 0.28 0.35 0.37 0.36 0.33 0.31 0.36 0.44 0.52 0.63 0.81 0.97 1.18 1.12 1.04 1.09 1.11 1.35 1.55 1.65 1.74 1.79 1.90 2.17 2.52 2.36 2.09
0.70 0.66 0.60 0.68 0.61 0.56 0.63 0.68 0.57 0.48 0.42 0.33 0.26 0.27 0.30 0.28 0.25 0.24 0.24 0.24 0.19 0.21 0.24 0.28 0.31 0.32 0.31 0.39 0.57 0.84 1.10 1.22 1.28 1.32 1.53 1.56 1.44 1.39 1.36 1.40 1.51 1.60 1.74 1.86 1.91 1.96 2.26 2.38 2.22
0.75 0.54 0.47 0.58 0.74 0.71 0.61 0.71 0.53 0.46 0.49 0.39 0.31 0.27 0.28 0.29 0.27 0.24 0.23 0.23 0.17 0.20 0.25 0.28 0.31 0.38 0.39 0.54 0.86 1.25 1.59 1.71 1.70 1.81 1.88 1.96 1.87 1.69 1.68 1.71 1.78 1.71 1.67 1.73 1.76 1.77 1.96 2.32 2.41
0.72 0.59 0.58 0.63 0.68 0.64 0.44 0.48 0.42 0.40 0.48 0.41 0.38 0.35 0.35 0.32 0.29 0.25 0.24 0.24 0.23 0.26 0.32 0.37 0.43 0.58 0.74 0.88 1.03 1.34 1.52 1.62 1.75 1.91 2.14 2.29 2.36 2.27 2.20 2.16 2.02 1.81 1.74 1.78 1.81 1.82 1.90 2.03 2.21
0.54 0.66 0.77 0.77 0.75 0.70 0.36 0.33 0.39 0.38 0.36 0.36 0.37 0.39 0.38 0.32 0.27 0.26 0.29 0.32 0.34 0.40 0.47 0.51 0.63 0.75 0.83 0.94 1.07 1.21 1.28 1.41 1.63 1.82 2.05 2.21 2.29 2.27 2.20 2.07 1.84 1.65 1.59 1.66 1.81 1.85 1.92 1.92 1.98
0.52 0.75 1.05 1.12 1.02 0.72 0.30 0.29 0.35 0.29 0.25 0.27 0.29 0.28 0.28 0.29 0.29 0.29 0.29 0.35 0.40 0.48 0.54 0.62 0.72 0.84 0.89 0.96 1.06 1.12 1.17 1.30 1.45 1.53 1.61 1.65 1.65 1.67 1.69 1.69 1.67 1.56 1.47 1.58 1.81 1.91 1.95 1.92 1.89
0.44 0.54 0.87 1.05 0.85 0.59 0.33 0.39 0.37 0.24 0.20 0.16 0.17 0.21 0.27 0.34 0.36 0.35 0.33 0.42 0.50 0.59 0.71 0.79 0.86 0.90 0.94 1.03 1.10 1.11 1.20 1.32 1.39 1.34 1.30 1.34 1.38 1.44 1.46 1.53 1.57 1.53 1.50 1.53 1.66 1.80 1.90 1.89 1.80
0.41 0.42 0.49 0.62 0.50 0.50 0.38 0.34 0.27 0.17 0.16 0.14 0.18 0.27 0.36 0.45 0.46 0.47 0.47 0.52 0.59 0.69 0.80 0.88 0.96 1.00 1.04 1.07 1.15 1.30 1.34 1.34 1.32 1.21 1.15 1.18 1.13 1.11 1.22 1.35 1.43 1.38 1.38 1.41 1.54 1.69 1.72 1.79 1.85
0.33 0.42 0.51 0.61 0.67 0.62 0.42 0.37 0.31 0.22 0.21 0.24 0.29 0.38 0.51 0.61 0.64 0.64 0.69 0.72 0.74 0.78 0.86 0.93 1.02 1.13 1.10 1.10 1.21 1.40 1.37 1.13 0.97 0.89 0.93 0.98 0.99 1.00 1.06 1.04 1.05 1.02 1.07 1.08 1.19 1.38 1.46 1.51 1.61
0.34 0.33 0.41 0.51 0.52 0.72 0.84 0.80 0.63 0.59 0.48 0.51 0.55 0.64 0.80 0.84 0.85 0.83 0.86 0.90 0.86 0.87 0.94 0.97 1.02 1.18 1.19 1.08 1.18 1.22 1.05 0.81 0.70 0.69 0.68 0.66 0.68 0.71 0.77 0.72 0.70 0.76 0.82 0.78 0.87 0.97 1.07 1.18 1.28
0.27 0.27 0.30 0.51 0.53 0.57 0.90 0.95 0.80 0.83 0.79 0.89 0.97 1.13 1.08 1.03 1.03 0.94 0.88 0.88 0.79 0.77 0.85 0.92 1.04 1.13 1.06 1.01 0.96 0.81 0.66 0.55 0.51 0.47 0.42 0.41 0.43 0.45 0.50 0.50 0.48 0.56 0.69 0.71 0.76 0.80 0.81 0.92 1.03

GEFSSGP_prec_meanprecacc_246.txt.gz
Total_Precipitation_Accumulation
1.34 1.38 2.05 3.20 3.64 2.98 2.51 1.90 1.19 1.21 1.02 0.69 0.59 0.67 1.07 1.62 1.88 2.13 2.17 1.76 1.09 0.88 1.01 1.62 2.21 2.01 1.92 1.93 1.99 2.07 2.12 2.12 2.00 1.83 1.70 1.58 1.40 1.26 1.21 1.19 1.09 1.00 1.00 0.94 0.94 0.96 1.04 1.12 1.16
1.20 1.92 2.82 3.80 3.37 2.63 2.52 1.86 1.36 1.04 0.68 0.49 0.48 0.55 0.81 0.91 0.86 1.31 2.29 2.04 1.13 0.91 0.94 1.21 2.01 2.08 2.04 2.10 2.07 1.94 1.86 1.83 1.69 1.64 1.59 1.46 1.41 1.32 1.23 1.16 1.08 0.96 0.93 0.94 0.94 0.89 0.93 1.00 1.05
1.54 2.43 3.37 3.47 2.61 2.38 2.40 1.70 1.21 0.66 0.44 0.49 0.54 0.54 0.72 0.97 1.07 1.60 2.10 1.56 1.07 0.93 1.00 1.38 2.09 2.14 2.11 2.06 2.03 2.02 1.82 1.75 1.59 1.45 1.47 1.42 1.39 1.27 1.21 1.15 1.03 0.94 0.92 0.87 0.89 0.92 0.95 1.06 1.08
1.85 2.66 2.95 2.59 2.17 1.74 1.44 1.28 0.89 0.73 0.57 0.38 0.46 0.61 0.57 0.92 1.20 1.47 1.33 1.03 0.99 1.01 1.08 1.42 1.94 2.05 2.05 2.01 1.99 1.91 1.72 1.60 1.51 1.39 1.43 1.45 1.42 1.31 1.19 1.10 1.05 0.97 0.95 0.90 0.90 0.98 1.06 1.16 1.13
2.15 2.66 2.56 2.08 1.98 1.52 1.12 0.95 0.74 0.89 0.81 0.50 0.44 0.63 0.76 1.07 1.20 1.26 1.14 0.98 1.00 1.07 1.08 1.34 1.81 1.90 1.96 1.86 1.69 1.67 1.65 1.51 1.37 1.32 1.32 1.31 1.31 1.25 1.18 1.23 1.21 1.08 1.01 0.97 0.97 1.09 1.10 1.14 1.14
2.32 2.37 2.24 2.05 2.08 1.73 1.41 1.04 0.83 0.92 0.74 0.50 0.47 0.69 0.91 1.20 1.35 1.30 1.13 1.14 1.13 1.12 1.05 1.16 1.58 1.74 1.78 1.71 1.64 1.64 1.59 1.48 1.31 1.22 1.20 1.21 1.22 1.11 1.06 1.13 1.13 1.09 1.06 1.02 0.99 1.07 1.00 1.04 1.14
2.54 2.35 1.99 1.69 1.94 2.20 1.68 1.07 0.99 1.00 0.90 0.67 0.49 0.77 0.98 1.22 1.32 1.12 1.06 1.28 1.44 1.40 1.22 1.13 1.26 1.45 1.58 1.71 1.72 1.77 1.74 1.65 1.48 1.29 1.23 1.22 1.14 0.97 0.91 1.04 1.09 1.10 1.05 1.04 1.07 1.13 1.07 1.07 1.20
2.11 2.15 1.77 1.73 2.00 2.29 1.64 1.08 0.88 0.87 0.88 0.56 0.51 0.85 1.17 1.14 1.18 1.14 1.06 1.21 1.33 1.37 1.32 1.22 1.26 1.33 1.38 1.51 1.74 1.94 2.01 2.06 1.78 1.43 1.32 1.19 1.02 0.93 0.96 0.99 1.10 1.20 1.20 1.20 1.24 1.28 1.22 1.25 1.25
2.02 2.33 2.15 2.24 2.20 1.84 1.25 1.16 0.87 0.67 0.74 0.68 0.56 0.60 0.80 0.76 0.80 0.95 1.03 1.05 1.01 0.98 1.06 1.11 1.17 1.30 1.33 1.36 1.46 1.81 2.00 2.12 1.78 1.31 1.33 1.19 0.94 0.88 0.98 1.02 1.34 1.44 1.46 1.49 1.51 1.46 1.45 1.39 1.31
2.12 2.18 1.95 1.69 1.48 1.32 1.17 1.07 0.85 0.88 1.03 0.94 0.77 0.67 0.69 0.70 0.78 0.86 0.86 0.88 0.82 0.81 0.76 0.78 0.79 0.89 1.07 1.16 1.42 1.72 1.76 1.87 1.53 1.28 1.28 1.21 1.26 1.17 0.96 1.07 1.44 1.61 1.66 1.55 1.50 1.54 1.43 1.21 1.01
1.63 1.71 1.35 1.10 0.86 0.89 0.93 0.86 0.69 0.83 1.07 0.85 0.72 0.70 0.74 0.78 0.78 0.82 0.82 0.70 0.63 0.60 0.59 0.59 0.63 0.65 0.81 1.14 1.43 1.68 1.78 1.84 1.79 1.72 1.51 1.45 1.37 1.16 1.02 1.00 1.08 1.20 1.27 1.17 1.27 1.30 1.11 1.02 0.92
1.48 1.28 1.06 0.99 0.75 0.77 0.76 0.72 0.77 0.72 0.71 0.56 0.50 0.57 0.75 0.85 0.79 0.72 0.74 0.72 0.64 0.62 0.62 0.56 0.49 0.55 0.68 0.87 1.10 1.42 1.60 1.66 1.64 1.58 1.27 1.32 1.34 1.16 1.11 1.20 1.25 1.22 1.20 1.34 1.38 1.35 1.26 1.09 0.92
1.43 1.21 0.92 0.71 0.66 0.64 0.66 0.70 0.72 0.65 0.53 0.49 0.47 0.57 0.76 0.86 0.84 0.71 0.64 0.61 0.63 0.71 0.80 0.75 0.61 0.58 0.67 0.76 0.78 0.96 1.14 1.23 1.48 1.54 1.18 1.10 1.13 1.23 1.23 1.13 1.29 1.36 1.37 1.39 1.43 1.32 1.23 1.24 1.10
1.25 1.02 0.81 0.67 0.65 0.60 0.65 0.67 0.65 0.73 0.56 0.53 0.55 0.64 0.75 0.84 0.84 0.70 0.61 0.53 0.52 0.56 0.68 0.73 0.74 0.75 0.77 0.73 0.67 0.66 0.73 0.87 1.02 1.06 0.93 0.89 0.92 1.09 1.29 1.20 1.17 1.25 1.45 1.54 1.52 1.42 1.43 1.41 1.24
0.85 0.88 0.91 0.79 0.73 0.69 0.75 0.91 0.67 0.61 0.54 0.54 0.56 0.65 0.63 0.65 0.66 0.57 0.51 0.43 0.42 0.47 0.53 0.61 0.68 0.73 0.78 0.85 0.83 0.69 0.69 0.78 0.80 0.81 0.82 0.85 0.85 1.02 1.23 1.17 1.08 1.08 1.23 1.42 1.62 1.67 1.64 1.43 1.34
1.00 0.99 1.24 0.97 0.88 0.77 0.88 1.00 0.59 0.54 0.55 0.53 0.55 0.67 0.64 0.52 0.47 0.43 0.46 0.45 0.42 0.45 0.46 0.52 0.52 0.59 0.70 0.84 0.92 0.88 0.87 0.87 0.80 0.71 0.66 0.68 0.70 0.78 1.03 1.13 1.06 1.05 1.21 1.44 1.69 1.85 1.88 1.68 1.62
1.27 1.18 1.10 0.98 0.86 0.76 0.71 0.70 0.53 0.47 0.47 0.47 0.50 0.59 0.59 0.46 0.41 0.36 0.34 0.37 0.41 0.42 0.44 0.46 0.48 0.52 0.58 0.70 0.79 0.81 0.83 0.86 0.82 0.75 0.66 0.60 0.61 0.70 0.95 1.20 1.24 1.23 1.35 1.46 1.48 1.72 1.82 1.89 1.80
1.00 0.87 0.86 0.78 0.69 0.65 0.59 0.51 0.46 0.41 0.40 0.44 0.47 0.52 0.50 0.37 0.32 0.29 0.29 0.34 0.40 0.41 0.43 0.48 0.49 0.49 0.50 0.53 0.62 0.72 0.71 0.75 0.79 0.72 0.68 0.73 0.80 0.87 1.09 1.35 1.42 1.49 1.53 1.63 1.81 2.08 2.10 1.99 1.97
0.77 0.72 0.70 0.56 0.46 0.51 0.52 0.50 0.47 0.43 0.38 0.40 0.42 0.40 0.44 0.38 0.33 0.26 0.24 0.24 0.31 0.36 0.38 0.44 0.48 0.48 0.45 0.42 0.47 0.53 0.57 0.70 0.81 0.86 0.92 0.92 0.94 1.02 1.24 1.46 1.71 1.82 1.70 1.75 1.98 2.26 2.41 2.22 2.04
0.77 0.78 0.75 0.67 0.49 0.49 0.52 0.54 0.48 0.42 0.38 0.32 0.30 0.28 0.33 0.32 0.30 0.25 0.24 0.22 0.22 0.25 0.29 0.36 0.38 0.37 0.34 0.32 0.37 0.46 0.54 0.66 0.86 1.01 1.21 1.15 1.06 1.11 1.14 1.38 1.57 1.67 1.76 1.81 1.92 2.20 2.54 2.37 2.09
0.70 0.66 0.60 0.68 0.61 0.57 0.64 0.69 0.58 0.48 0.43 0.34 0.26 0.27 0.30 0.29 0.25 0.25 0.25 0.25 0.21 0.22 0.25 0.29 0.33 0.33 0.32 0.39 0.58 0.85 1.12 1.24 1.31 1.35 1.56 1.59 1.46 1.42 1.39 1.43 1.53 1.62 1.77 1.90 1.93 1.98 2.29 2.40 2.23
0.75 0.54 0.47 0.58 0.74 0.72 0.62 0.72 0.54 0.47 0.50 0.39 0.31 0.27 0.28 0.29 0.27 0.24 0.23 0.25 0.19 0.21 0.26 0.29 0.32 0.38 0.40 0.55 0.87 1.27 1.61 1.74 1.73 1.83 1.90 1.98 1.89 1.72 1.72 1.74 1.81 1.74 1.71 1.77 1.79 1.79 1.99 2.34 2.43
0.72 0.59 0.58 0.63 0.68 0.64 0.44 0.49 0.43 0.42 0.50 0.42 0.38 0.35 0.36 0.32 0.29 0.25 0.24 0.25 0.24 0.27 0.34 0.38 0.45 0.59 0.75 0.89 1.05 1.35 1.54 1.64 1.77 1.93 2.17 2.32 2.37 2.29 2.22 2.18 2.05 1.84 1.76 1.81 1.84 1.84 1.93 2.06 2.24
0.55 0.66 0.77 0.77 0.75 0.71 0.36 0.34 0.39 0.40 0.38 0.38 0.37 0.39 0.38 0.32 0.27 0.26 0.30 0.33 0.35 0.41 0.49 0.53 0.65 0.77 0.84 0.94 1.08 1.22 1.29 1.43 1.64 1.83 2.06 2.22 2.31 2.28 2.21 2.08 1.86 1.68 1.62 1.70 1.84 1.88 1.95 1.95 2.02
0.52 0.75 1.05 1.13 1.03 0.72 0.30 0.29 0.36 0.29 0.27 0.30 0.31 0.28 0.28 0.29 0.29 0.29 0.29 0.36 0.41 0.49 0.55 0.64 0.75 0.86 0.90 0.96 1.07 1.13 1.18 1.31 1.46 1.54 1.62 1.66 1.67 1.69 1.71 1.71 1.68 1.58 1.49 1.60 1.84 1.94 1.98 1.95 1.92
0.44 0.54 0.88 1.05 0.85 0.59 0.33 0.39 0.38 0.25 0.21 0.18 0.21 0.23 0.27 0.34 0.36 0.35 0.33 0.42 0.50 0.59 0.71 0.81 0.89 0.91 0.94 1.03 1.11 1.11 1.21 1.32 1.41 1.35 1.31 1.37 1.40 1.46 1.48 1.54 1.58 1.54 1.51 1.54 1.68 1.82 1.93 1.92 1.84
0.41 0.42 0.49 0.62 0.50 0.50 0.38 0.35 0.27 0.17 0.16 0.15 0.20 0.29 0.37 0.45 0.47 0.47 0.47 0.52 0.59 0.69 0.80 0.89 0.98 1.01 1.06 1.07 1.16 1.31 1.35 1.35 1.33 1.22 1.17 1.20 1.16 1.13 1.23 1.36 1.45 1.40 1.39 1.42 1.55 1.72 1.75 1.82 1.88
0.33 0.42 0.52 0.62 0.68 0.63 0.43 0.37 0.31 0.22 0.22 0.24 0.30 0.39 0.51 0.62 0.64 0.65 0.69 0.72 0.75 0.78 0.87 0.94 1.04 1.14 1.11 1.11 1.22 1.41 1.38 1.14 0.98 0.90 0.95 0.99 1.02 1.03 1.07 1.05 1.07 1.04 1.08 1.10 1.21 1.40 1.49 1.54 1.64
0.34 0.33 0.42 0.52 0.53 0.73 0.84 0.80 0.64 0.59 0.48 0.52 0.55 0.65 0.81 0.85 0.86 0.83 0.86 0.90 0.87 0.88 0.95 0.98 1.04 1.19 1.20 1.09 1.18 1.22 1.05 0.81 0.71 0.70 0.69 0.68 0.70 0.75 0.80 0.73 0.72 0.78 0.84 0.80 0.89 0.99 1.09 1.20 1.31
0.28 0.27 0.31 0.52 0.53 0.58 0.91 0.95 0.80 0.83 0.80 0.89 0.98 1.14 1.09 1.04 1.04 0.95 0.89 0.88 0.80 0.78 0.87 0.94 1.07 1.14 1.07 1.01 0.97 0.81 0.66 0.56 0.52 0.48 0.44 0.43 0.45 0.47 0.52 0.51 0.50 0.57 0.71 0.72 0.78 0.82 0.82 0.93 1.05